[[{"header":{"parameterUnit":"m.s-1","parameterCategory":1,"la1":30.2991,"la2":30.254,"lo1":-89.0895,"lo2":-89.0444,"dy":0.0017,"dx":0.0017,"nx":28,"ny":28,"refTime":"2024-03-18T03:00:00:Z","depth":0,"parameterNumber":2,"parameterNumberName":"U-component_of_WINDS"},"data":[0,0,0,0,0,0,0,0,0,0,0,0,0,0,0,0,0,0,0,0,0,0,0,0,0,0,0,0,0,0,0,0,0,0,0,0,0,0,0,0,0,0,0,0,0,0,0,0,0,0,0,0,0,0,0,0,0,0,-3.1142,-3.1143,0,-3.1168,-3.1169,-3.1169,-3.11,-3.1098,-3.1096,-3.1094,-3.1122,-3.1125,-3.1127,0,0,0,0,0,0,0,0,0,0,0,0,0,-3.1034,-3.1037,-3.1142,-3.1143,-3.1143,-3.1168,-3.1169,-3.1169,-3.1101,-3.1098,-3.1095,-3.1093,-3.1121,-3.1124,-3.1128,0,0,0,0,0,0,0,0,0,0,0,0,0,-3.1073,-3.1037,-3.1142,-3.1112,-3.1109,-3.1168,-3.1169,-3.1169,-3.1101,-3.1098,-3.1095,-3.1092,-3.112,-3.1124,-3.1128,-3.1218,0,0,-3.1141,-3.1143,0,0,0,0,0,0,0,0,-3.1071,-3.1077,-3.1116,-3.1114,-3.1111,-3.1128,-3.1141,-3.1186,-3.1102,-3.1104,-3.1094,-3.109,-3.1127,-3.113,-3.1142,-3.122,-3.1221,-3.1141,-3.1144,-3.1145,-3.1147,0,0,0,0,0,0,0,-3.1068,-3.1076,-3.1153,-3.1117,-3.1114,-3.1097,-3.1099,-3.1149,-3.1133,-3.1104,-3.1099,-3.1103,-3.1125,-3.1138,-3.1142,-3.1221,-3.1141,-3.1145,-3.1147,-3.1149,-3.1375,-3.1378,0,0,0,0,0,0,-3.1069,-3.1074,-3.1152,-3.1153,-3.1083,-3.1102,-3.1104,-3.1126,-3.1133,-3.113,-3.1106,-3.11,-3.1133,-3.1137,-3.1143,-3.1249,-3.1145,-3.1149,-3.1152,-3.1371,-3.1375,-3.1379,0,0,0,0,0,0,-3.1067,-3.1077,-3.1151,-3.1112,-3.112,-3.1107,-3.1132,-3.1128,-3.1141,-3.1134,-3.1131,-3.1122,-3.113,-3.1137,-3.12,-3.1249,-3.1151,-3.1155,-3.1367,-3.1372,-3.1377,-3.1463,0,0,0,0,0,0,-3.1064,-3.1077,-3.111,-3.1114,-3.1123,-3.1207,-3.1135,-3.1131,-3.1148,-3.1141,-3.1149,-3.1147,-3.1128,-3.1194,-3.1204,-3.1253,-3.1158,-3.1363,-3.1369,-3.1376,-3.1456,-3.1471,-3.1483,0,0,0,0,0,-3.1061,-3.1134,-3.1113,-3.1122,-3.1165,-3.121,-3.1216,-3.1193,-3.1153,-3.1187,-3.1182,-3.1147,-3.1242,-3.1201,-3.1212,-3.1263,-3.1359,-3.1368,-3.1375,-3.145,-3.1468,-3.1483,0,0,0,0,0,0,-3.1137,-3.1134,-3.111,-3.1186,-3.1199,-3.1199,-3.1241,-3.1212,-3.1237,-3.1229,-3.12,-3.1202,-3.1271,-3.1273,-3.1227,-3.1351,-3.1294,-3.1305,-3.1347,-3.1364,-3.1378,-3.1376,-3.1162,0,0,0,0,0,-3.1163,-3.12,-3.1195,-3.1262,-3.127,-3.1255,-3.1274,-3.1255,-3.1267,-3.1272,-3.1272,-3.1286,-3.1319,-3.1342,-3.1372,-3.1455,-3.1457,-3.1496,-3.151,-3.1521,-3.1531,-3.1576,-3.1594,-3.1405,-3.1405,-3.1405,0,0,-3.1216,-3.1219,-3.1244,-3.1278,-3.1286,-3.1325,-3.126,-3.1304,-3.1333,-3.1279,-3.1339,-3.1339,-3.1353,-3.1427,-3.1459,-3.1431,-3.1583,-3.1531,-3.154,-3.1544,-3.1586,-3.1604,-3.162,-3.1411,-3.141,-3.1409,0,0,-3.1334,-3.134,-3.1397,-3.1406,-3.1418,-3.1408,-3.1421,-3.1426,-3.1424,-3.1483,-3.1443,-3.1477,-3.1535,-3.1546,-3.156,-3.1682,-3.1651,-3.1693,-3.1765,-3.181,-3.1824,-3.1837,-3.1882,-3.1898,-3.1702,-3.1702,-3.1703,0,-3.1399,-3.1457,-3.143,-3.1477,-3.1493,-3.1446,-3.1504,-3.1514,-3.1536,-3.1549,-3.1516,-3.1587,-3.1593,-3.167,-3.1699,-3.1712,-3.1727,-3.1692,-3.1824,-3.1837,-3.1849,-3.1891,-3.1908,-3.1708,-3.1707,-3.1706,-3.1706,0,-3.1537,-3.1577,-3.1622,-3.1644,-3.1665,-3.1718,-3.1699,-3.1724,-3.1703,-3.1696,-3.1757,-3.1762,-3.1793,-3.1809,-3.179,-3.1883,-3.1865,-3.1829,-3.1771,-3.1872,-3.1912,-3.1927,-3.1715,-3.1713,-3.1711,-3.171,0,0,-3.1704,-3.171,-3.1727,-3.1737,-3.1747,-3.1778,-3.1829,-3.1858,-3.1881,-3.1897,-3.1939,-3.1989,-3.1956,-3.1971,-3.1952,-3.1991,-3.2089,-3.195,-3.195,-3.1976,-3.2193,-3.2221,-3.224,-3.2067,-3.207,-3.2073,-3.2192,0,-3.1821,-3.1907,-3.1884,-3.1971,-3.2008,-3.1963,-3.2007,-3.2019,-3.2014,-3.2045,-3.2039,-3.2075,-3.2028,-3.2037,-3.2073,-3.2069,-3.2132,-3.206,-3.2107,-3.2109,-3.2106,-3.226,-3.229,-3.2402,-3.2207,-3.221,-3.2212,0,-3.1969,-3.1991,-3.2081,-3.2086,-3.2101,-3.2141,-3.2166,-3.2196,-3.2209,-3.2202,-3.2219,-3.2192,-3.2243,-3.2184,-3.2254,-3.2205,-3.2223,-3.2224,-3.2228,-3.2232,-3.2167,-3.227,-3.2438,-3.2455,-3.2235,-3.2233,-3.2232,0,-3.2083,-3.2135,-3.2196,-3.2206,-3.2212,-3.2242,-3.2246,-3.2255,-3.2274,-3.2296,-3.2309,-3.2337,-3.2352,-3.2375,-3.2357,-3.2315,-3.2429,-3.2369,-3.2426,-3.2427,-3.2453,-3.2452,-3.2627,-3.2463,-3.2463,-3.2462,-3.2462,0,-3.2216,-3.2273,-3.2248,-3.2285,-3.2348,-3.2321,-3.2384,-3.2383,-3.2392,-3.2429,-3.2391,-3.2427,-3.24,-3.2434,-3.242,-3.248,-3.2487,-3.2484,-3.2479,-3.2488,-3.2488,-3.2499,-3.2492,-3.2467,-3.2466,-3.2465,-3.2464,0,-3.2355,-3.2339,-3.2403,-3.2404,-3.2406,-3.2452,-3.2453,-3.2488,-3.248,-3.2527,-3.2537,-3.2524,-3.2562,-3.2545,-3.2585,-3.2575,-3.2653,-3.2638,-3.2649,-3.2645,-3.2703,-3.2699,-3.2893,-3.2918,-3.2737,-3.2739,-3.274,0,-3.2441,-3.2484,-3.249,-3.2512,-3.2518,-3.2554,-3.2574,-3.2549,-3.2571,-3.2588,-3.2621,-3.2655,-3.2681,-3.2744,-3.2738,-3.2768,-3.2754,-3.282,-3.2759,-3.2766,-3.2756,-3.2755,-3.2759,-3.2833,-3.2835,-3.2837,-3.2838,0,-3.2597,-3.2587,-3.2617,-3.2644,-3.2668,-3.2688,-3.2705,-3.2725,-3.2701,-3.2728,-3.2766,-3.2786,-3.2826,-3.2861,-3.2887,-3.2892,-3.2862,-3.2858,-3.2873,-3.2882,-3.2887,-3.2886,-3.2684,-3.2854,-3.2852,-3.2851,-3.285,-3.285,-3.2713,-3.2749,-3.2759,-3.2793,-3.2803,-3.282,-3.2853,-3.2849,-3.2879,-3.291,-3.2894,-3.2938,-3.2949,-3.2982,-3.299,-3.3025,-3.2999,-3.3021,-3.3026,-3.3032,-3.304,-3.2881,-3.303,-3.3029,-3.3029,-3.3028,-3.3028,0,-3.2867,-3.2871,-3.2903,-3.2927,-3.2955,-3.2923,-3.294,-3.2965,-3.3004,-3.3017,-3.3043,-3.3087,-3.3121,-3.3118,-3.3149,-3.3177,-3.3164,-3.3186,-3.3184,-3.3186,-3.3061,-3.3045,-3.3196,-3.3196,-3.3196,-3.3196,-3.3196,-3.3196,-3.2951,-3.3011,-3.3002,-3.3067,-3.307,-3.3113,-3.3126,-3.3141,-3.3152,-3.3202,-3.3229,-3.3227,-3.3234,-3.3265,-3.3295,-3.3293,-3.3307,-3.3334,-3.3328,-3.3211,-3.3195,-3.3179,-3.3164,-3.3337,-3.3337,-3.3449,-3.345,-3.3451]},{"header":{"parameterUnit":"m.s-1","parameterCategory":1,"la1":30.2991,"la2":30.254,"lo1":-89.0895,"lo2":-89.0444,"dy":0.0017,"dx":0.0017,"nx":28,"ny":28,"refTime":"2024-03-18T03:00:00:Z","depth":0,"parameterNumber":3,"parameterNumberName":"V-component_of_WINDS"},"data":[0,0,0,0,0,0,0,0,0,0,0,0,0,0,0,0,0,0,0,0,0,0,0,0,0,0,0,0,0,0,0,0,0,0,0,0,0,0,0,0,0,0,0,0,0,0,0,0,0,0,0,0,0,0,0,0,0,0,-3.8714,-3.8714,0,-3.8734,-3.8734,-3.8735,-3.8674,-3.8672,-3.867,-3.8668,-3.8687,-3.869,-3.8692,0,0,0,0,0,0,0,0,0,0,0,0,0,-3.8622,-3.8624,-3.8714,-3.8714,-3.8715,-3.8734,-3.8734,-3.8735,-3.8674,-3.8672,-3.8669,-3.8667,-3.8687,-3.8689,-3.8692,0,0,0,0,0,0,0,0,0,0,0,0,0,-3.8654,-3.8625,-3.8714,-3.8687,-3.8684,-3.8734,-3.8734,-3.8735,-3.8674,-3.8671,-3.8669,-3.8666,-3.8686,-3.8689,-3.8692,-3.8769,0,0,-3.8703,-3.8704,0,0,0,0,0,0,0,0,-3.8652,-3.8657,-3.869,-3.8689,-3.8686,-3.8698,-3.8709,-3.8746,-3.8675,-3.8678,-3.8668,-3.8665,-3.8693,-3.8696,-3.8706,-3.877,-3.8771,-3.8703,-3.8705,-3.8706,-3.8707,0,0,0,0,0,0,0,-3.865,-3.8656,-3.8722,-3.8691,-3.8688,-3.8673,-3.8674,-3.8716,-3.8701,-3.8678,-3.8673,-3.8677,-3.8692,-3.8703,-3.8706,-3.8771,-3.8703,-3.8706,-3.8708,-3.8709,-3.8899,-3.8902,0,0,0,0,0,0,-3.8652,-3.8655,-3.8721,-3.8723,-3.8662,-3.8677,-3.8678,-3.8697,-3.87,-3.8698,-3.8679,-3.8674,-3.8698,-3.8702,-3.8706,-3.8796,-3.8706,-3.871,-3.8711,-3.8896,-3.89,-3.8903,0,0,0,0,0,0,-3.865,-3.8658,-3.872,-3.8687,-3.8694,-3.8681,-3.8703,-3.8699,-3.871,-3.8701,-3.8698,-3.8693,-3.8696,-3.8701,-3.8754,-3.8796,-3.8711,-3.8714,-3.8893,-3.8897,-3.8901,-3.8978,0,0,0,0,0,0,-3.8647,-3.8658,-3.8687,-3.8689,-3.8696,-3.8769,-3.8706,-3.8702,-3.8716,-3.871,-3.8714,-3.8712,-3.8694,-3.8749,-3.8757,-3.8799,-3.8717,-3.8889,-3.8895,-3.89,-3.8971,-3.8984,-3.8995,0,0,0,0,0,-3.8644,-3.8708,-3.8689,-3.8697,-3.8733,-3.8771,-3.8776,-3.8755,-3.872,-3.8749,-3.8743,-3.8712,-3.879,-3.8755,-3.8764,-3.8807,-3.8886,-3.8893,-3.89,-3.8966,-3.8982,-3.8995,0,0,0,0,0,0,-3.8711,-3.8707,-3.8687,-3.8752,-3.8763,-3.8761,-3.8797,-3.8772,-3.8792,-3.8785,-3.8757,-3.8759,-3.8816,-3.8817,-3.8778,-3.8882,-3.8832,-3.8841,-3.888,-3.8894,-3.8906,-3.8905,-3.872,0,0,0,0,0,-3.8733,-3.8765,-3.876,-3.8818,-3.8825,-3.881,-3.8826,-3.8809,-3.8819,-3.8822,-3.8821,-3.8831,-3.8857,-3.8876,-3.89,-3.8971,-3.8971,-3.9005,-3.9017,-3.9027,-3.9035,-3.9073,-3.9088,-3.8925,-3.8925,-3.8925,0,0,-3.878,-3.8782,-3.8804,-3.8832,-3.8838,-3.8871,-3.8814,-3.8852,-3.8877,-3.8828,-3.8878,-3.8877,-3.8886,-3.8948,-3.8976,-3.895,-3.908,-3.9035,-3.9043,-3.9046,-3.9081,-3.9097,-3.911,-3.893,-3.8929,-3.8928,0,0,-3.8882,-3.8887,-3.8936,-3.8943,-3.8953,-3.8943,-3.8955,-3.8957,-3.8955,-3.9004,-3.8969,-3.8997,-3.9044,-3.9052,-3.9062,-3.9167,-3.9139,-3.9176,-3.9239,-3.9276,-3.9289,-3.93,-3.9338,-3.9352,-3.9184,-3.9184,-3.9184,0,-3.8938,-3.8988,-3.8964,-3.9005,-3.9018,-3.8976,-3.9026,-3.9034,-3.9051,-3.9061,-3.9033,-3.9091,-3.9094,-3.9158,-3.9183,-3.9193,-3.9206,-3.9176,-3.9289,-3.93,-3.931,-3.9346,-3.936,-3.9189,-3.9188,-3.9188,-3.9187,0,-3.9057,-3.9092,-3.913,-3.9149,-3.9167,-3.9212,-3.9194,-3.9215,-3.9196,-3.9189,-3.924,-3.9242,-3.9266,-3.928,-3.9262,-3.9341,-3.9326,-3.9294,-3.9243,-3.933,-3.9364,-3.9377,-3.9195,-3.9193,-3.9192,-3.9191,0,0,-3.9202,-3.9207,-3.9222,-3.923,-3.9237,-3.9264,-3.9306,-3.933,-3.9349,-3.9362,-3.9397,-3.9438,-3.9408,-3.942,-3.9402,-3.9435,-3.9518,-3.9399,-3.9398,-3.9421,-3.9607,-3.9631,-3.9648,-3.9499,-3.9502,-3.9504,-3.9606,0,-3.9303,-3.9377,-3.9357,-3.9431,-3.9463,-3.9423,-3.946,-3.9469,-3.9463,-3.9489,-3.9482,-3.9512,-3.947,-3.9477,-3.9508,-3.9502,-3.9555,-3.9494,-3.9532,-3.9534,-3.9532,-3.9665,-3.9691,-3.9788,-3.9619,-3.9621,-3.9623,0,-3.9431,-3.945,-3.9527,-3.953,-3.9543,-3.9577,-3.9597,-3.9622,-3.9631,-3.9625,-3.9638,-3.9614,-3.9655,-3.9604,-3.9661,-3.962,-3.9634,-3.9634,-3.9637,-3.964,-3.9584,-3.9673,-3.9818,-3.9833,-3.9643,-3.9641,-3.964,0,-3.953,-3.9575,-3.9627,-3.9635,-3.9639,-3.9664,-3.9667,-3.9673,-3.9689,-3.9706,-3.9716,-3.9738,-3.975,-3.9768,-3.975,-3.9714,-3.981,-3.9757,-3.9806,-3.9807,-3.9829,-3.9828,-3.9979,-3.9837,-3.9836,-3.9836,-3.9836,0,-3.9646,-3.9695,-3.9672,-3.9704,-3.9757,-3.9733,-3.9787,-3.9785,-3.9791,-3.9821,-3.9788,-3.9817,-3.9792,-3.9819,-3.9805,-3.9855,-3.986,-3.9856,-3.9852,-3.986,-3.986,-3.9869,-3.9862,-3.984,-3.9839,-3.9838,-3.9838,0,-3.9766,-3.9752,-3.9807,-3.9806,-3.9807,-3.9847,-3.9846,-3.9876,-3.9867,-3.9907,-3.9915,-3.9902,-3.9932,-3.9916,-3.9947,-3.9937,-4.0002,-3.9988,-3.9999,-3.9996,-4.0046,-4.0042,-4.0209,-4.023,-4.0073,-4.0075,-4.0076,0,-3.9841,-3.9878,-3.9882,-3.99,-3.9906,-3.9936,-3.9952,-3.9929,-3.9947,-3.996,-3.9988,-4.0015,-4.0036,-4.0086,-4.0079,-4.0103,-4.009,-4.0147,-4.0093,-4.01,-4.0092,-4.009,-4.0094,-4.0158,-4.016,-4.0161,-4.0162,0,-3.9976,-3.9967,-3.9992,-4.0015,-4.0035,-4.0052,-4.0065,-4.0082,-4.006,-4.0082,-4.0112,-4.0129,-4.016,-4.0188,-4.0208,-4.021,-4.0183,-4.0179,-4.0192,-4.0201,-4.0206,-4.0205,-4.003,-4.0176,-4.0174,-4.0173,-4.0173,-4.0172,-4.0076,-4.0107,-4.0115,-4.0144,-4.0152,-4.0165,-4.0193,-4.0189,-4.0214,-4.0239,-4.0223,-4.026,-4.0267,-4.0291,-4.0297,-4.0325,-4.0302,-4.0321,-4.0325,-4.033,-4.0338,-4.0201,-4.0329,-4.0328,-4.0328,-4.0327,-4.0327,0,-4.021,-4.0213,-4.024,-4.026,-4.0283,-4.0255,-4.0268,-4.0289,-4.0322,-4.0331,-4.0353,-4.0388,-4.0415,-4.041,-4.0434,-4.0457,-4.0445,-4.0464,-4.0463,-4.0464,-4.0356,-4.0343,-4.0474,-4.0474,-4.0474,-4.0474,-4.0474,-4.0474,-4.0282,-4.0334,-4.0326,-4.0381,-4.0383,-4.0419,-4.0429,-4.0442,-4.0449,-4.049,-4.0513,-4.0509,-4.0513,-4.0537,-4.056,-4.0558,-4.0569,-4.0593,-4.0587,-4.0486,-4.0472,-4.0458,-4.0446,-4.0595,-4.0596,-4.0692,-4.0693,-4.0694]}]]